Вернуться в каталог

THOR ABLESTAR DEB

АктивенLEO
NORAD 408·DEBRIS·🇺🇸 United States

Запущен Jun 29, 1961 с Cape Canaveral Space Force Station

Loading…

Ближайшие Пролёты (ближайшие 24 часа)

TLE

СвежийSource: Space-Track

Эпоха: Sep 5, 2026, 11:10 UTC

1 00408U 61015EH  26248.46573008  .00000263  00000-0  33566-3 0  9997
2 00408  66.7844 277.5695 0057650  65.2912   2.7100 13.77214720316754

Отслеживайте THOR ABLESTAR DEB в реальном времени с AllMySat

Download on the App Store